ROA4010 SABE-SCEL

Flight info

Callsign ROA4010
Flight time 1h 58m
Altitude 32000
Route PAL9 NEPIS DCT NIN UL405 TOSOR UT687 UMKAL UMKAL7B
Aircraft A321/M-SDE3FGHIRWY/LB1

Departure

Time 2026-05-06 22:29
Airport Aeroparque Jorge Newbery (SABE)

Arrival

Time 2026-05-07 00:28
Airport Comodoro Arturo Merino Benítez International Airport (SCEL)
Time Latitude Longitude Altitude Speed Heading
2026-05-06 21:59 -34.55705 -58.41443 27 ft 0 kts 14°
2026-05-06 22:21 -34.55725 -58.41448 27 ft 4 kts 355°
2026-05-06 22:21 -34.55749 -58.41438 27 ft 4 kts 317°
2026-05-06 22:21 -34.55762 -58.41418 27 ft 0 kts 298°
2026-05-06 22:24 -34.55760 -58.41422 27 ft 3 kts 298°
2026-05-06 22:24 -34.55736 -58.41475 27 ft 11 kts 298°
2026-05-06 22:24 -34.55726 -58.41545 27 ft 7 kts 237°
2026-05-06 22:25 -34.55761 -58.41577 27 ft 6 kts 212°
2026-05-06 22:25 -34.55786 -58.41622 27 ft 9 kts 288°
2026-05-06 22:25 -34.55751 -58.41713 26 ft 14 kts 297°
2026-05-06 22:25 -34.55703 -58.41812 29 ft 13 kts 305°
2026-05-06 22:26 -34.55656 -58.41893 27 ft 10 kts 304°
2026-05-06 22:26 -34.55620 -58.41958 27 ft 9 kts 304°
2026-05-06 22:26 -34.55586 -58.42018 27 ft 9 kts 305°
2026-05-06 22:26 -34.55532 -58.42108 27 ft 17 kts 306°
2026-05-06 22:27 -34.55462 -58.42221 27 ft 16 kts 306°
2026-05-06 22:27 -34.55400 -58.42322 27 ft 11 kts 308°
2026-05-06 22:27 -34.55373 -58.42373 27 ft 0 kts 294°
2026-05-06 22:28 -34.55369 -58.42386 27 ft 4 kts 290°
2026-05-06 22:28 -34.55362 -58.42420 26 ft 4 kts 280°
2026-05-06 22:28 -34.55372 -58.42492 27 ft 13 kts 232°
2026-05-06 22:28 -34.55408 -58.42497 27 ft 4 kts 125°
2026-05-06 22:29 -34.55464 -58.42400 28 ft 36 kts 125°
2026-05-06 22:29 -34.55741 -58.41904 28 ft 104 kts 124°
2026-05-06 22:29 -34.56243 -58.40996 51 ft 151 kts 124°
2026-05-06 22:29 -34.56827 -58.39924 629 ft 153 kts 119°
2026-05-06 22:30 -34.57438 -58.38816 970 ft 168 kts 113°
2026-05-06 22:30 -34.57782 -58.37441 1148 ft 173 kts 77°
2026-05-06 22:30 -34.57460 -58.36080 1404 ft 170 kts 47°
2026-05-06 22:30 -34.56662 -58.34955 1518 ft 186 kts 40°
2026-05-06 22:31 -34.55769 -58.33735 1666 ft 207 kts 41°
2026-05-06 22:31 -34.54765 -58.32340 1825 ft 232 kts 41°
2026-05-06 22:31 -34.53659 -58.30832 2305 ft 243 kts 35°
2026-05-06 22:31 -34.52232 -58.29807 2865 ft 238 kts
2026-05-06 22:32 -34.50602 -58.29681 3477 ft 235 kts 345°
2026-05-06 22:32 -34.49114 -58.30456 4141 ft 236 kts 322°
2026-05-06 22:32 -34.48058 -58.31980 4817 ft 242 kts 298°
2026-05-06 22:32 -34.47683 -58.33993 5508 ft 253 kts 274°
2026-05-06 22:33 -34.47828 -58.36140 6222 ft 257 kts 271°
2026-05-06 22:33 -34.48005 -58.38301 6912 ft 258 kts 271°
2026-05-06 22:33 -34.48189 -58.40480 7573 ft 261 kts 271°
2026-05-06 22:33 -34.48367 -58.42646 8224 ft 263 kts 271°
2026-05-06 22:34 -34.48545 -58.44861 8868 ft 265 kts 271°
2026-05-06 22:34 -34.48724 -58.47099 9509 ft 268 kts 271°
2026-05-06 22:34 -34.48905 -58.49366 9970 ft 277 kts 271°
2026-05-06 22:34 -34.49090 -58.51779 10087 ft 297 kts 270°
2026-05-06 22:35 -34.49284 -58.54353 10223 ft 316 kts 270°
2026-05-06 22:35 -34.49492 -58.57039 10629 ft 323 kts 270°
2026-05-06 22:35 -34.49712 -58.59768 11182 ft 326 kts 269°
2026-05-06 22:35 -34.49932 -58.62512 11769 ft 328 kts 269°
2026-05-06 22:36 -34.50152 -58.65275 12335 ft 330 kts 269°
2026-05-06 22:36 -34.50373 -58.68058 12922 ft 332 kts 269°
2026-05-06 22:36 -34.50591 -58.70853 13500 ft 334 kts 269°
2026-05-06 22:36 -34.50805 -58.73661 14007 ft 336 kts 269°
2026-05-06 22:37 -34.51017 -58.76457 14511 ft 338 kts 269°
2026-05-06 22:37 -34.51232 -58.79301 15013 ft 340 kts 270°
2026-05-06 22:37 -34.51446 -58.82172 15519 ft 343 kts 270°
2026-05-06 22:37 -34.51662 -58.85061 16018 ft 345 kts 270°
2026-05-06 22:38 -34.51880 -58.87968 16538 ft 347 kts 270°
2026-05-06 22:38 -34.52101 -58.90895 17041 ft 350 kts 270°
2026-05-06 22:38 -34.52322 -58.93843 17544 ft 352 kts 270°
2026-05-06 22:38 -34.52542 -58.96810 18036 ft 355 kts 270°
2026-05-06 22:39 -34.52764 -58.99797 18471 ft 357 kts 270°
2026-05-06 22:39 -34.52990 -59.02804 18914 ft 359 kts 270°
2026-05-06 22:39 -34.53215 -59.05832 19340 ft 362 kts 271°
2026-05-06 22:39 -34.53442 -59.08879 19767 ft 364 kts 271°
2026-05-06 22:40 -34.53670 -59.11942 20199 ft 366 kts 271°
2026-05-06 22:40 -34.53896 -59.14983 20622 ft 368 kts 271°
2026-05-06 22:40 -34.54122 -59.18083 21047 ft 370 kts 271°
2026-05-06 22:40 -34.54346 -59.21200 21470 ft 372 kts 271°
2026-05-06 22:41 -34.54799 -59.27496 22302 ft 377 kts 271°
2026-05-06 22:41 -34.54988 -59.30664 22718 ft 377 kts 273°
2026-05-06 22:41 -34.55057 -59.33838 23218 ft 376 kts 275°
2026-05-06 22:42 -34.55051 -59.37009 23603 ft 376 kts 275°
2026-05-06 22:42 -34.55012 -59.40191 23927 ft 377 kts 276°
2026-05-06 22:42 -34.54969 -59.43379 24263 ft 379 kts 276°
2026-05-06 22:42 -34.54937 -59.46580 24620 ft 381 kts 275°
2026-05-06 22:43 -34.54921 -59.49798 24970 ft 382 kts 275°
2026-05-06 22:43 -34.54916 -59.53024 25311 ft 383 kts 275°
2026-05-06 22:43 -34.54916 -59.56259 25649 ft 385 kts 275°
2026-05-06 22:43 -34.54916 -59.59467 25978 ft 386 kts 275°
2026-05-06 22:44 -34.54919 -59.62722 26371 ft 386 kts 275°
2026-05-06 22:44 -34.54919 -59.65978 26733 ft 386 kts 275°
2026-05-06 22:44 -34.54917 -59.69239 27068 ft 387 kts 275°
2026-05-06 22:44 -34.54912 -59.72511 27384 ft 388 kts 275°
2026-05-06 22:45 -34.54905 -59.75791 27709 ft 390 kts 275°
2026-05-06 22:45 -34.54899 -59.79083 28010 ft 391 kts 275°
2026-05-06 22:45 -34.54889 -59.82387 28304 ft 392 kts 275°
2026-05-06 22:45 -34.54881 -59.85695 28593 ft 393 kts 275°
2026-05-06 22:46 -34.54871 -59.89020 28913 ft 395 kts 275°
2026-05-06 22:46 -34.54862 -59.92348 29243 ft 395 kts 275°
2026-05-06 22:46 -34.54851 -59.95635 29546 ft 396 kts 275°
2026-05-06 22:46 -34.54839 -59.98975 29813 ft 397 kts 275°
2026-05-06 22:47 -34.54824 -60.02324 30090 ft 396 kts 275°
2026-05-06 22:47 -34.54811 -60.05656 30430 ft 394 kts 275°
2026-05-06 22:47 -34.54798 -60.08974 30788 ft 393 kts 275°
2026-05-06 22:47 -34.54784 -60.12277 31146 ft 391 kts 275°
2026-05-06 22:48 -34.54769 -60.15564 31502 ft 389 kts 274°
2026-05-06 22:48 -34.54752 -60.18838 31663 ft 388 kts 274°
2026-05-06 22:48 -34.54730 -60.22098 31661 ft 386 kts 275°
2026-05-06 22:49 -34.54689 -60.28584 31676 ft 384 kts 275°
2026-05-06 22:49 -34.54649 -60.35059 31681 ft 384 kts 275°
2026-05-06 22:50 -34.54602 -60.41492 31678 ft 384 kts 275°
2026-05-06 22:50 -34.54555 -60.47960 31688 ft 384 kts 274°
2026-05-06 22:51 -34.54500 -60.54427 31681 ft 383 kts 274°
2026-05-06 22:51 -34.54441 -60.60891 31681 ft 383 kts 274°
2026-05-06 22:52 -34.54380 -60.67351 31681 ft 383 kts 274°
2026-05-06 22:52 -34.54316 -60.73814 31678 ft 383 kts 274°
2026-05-06 22:53 -34.54252 -60.80272 31685 ft 389 kts 275°
2026-05-06 22:53 -34.54179 -60.86850 31686 ft 391 kts 275°
2026-05-06 22:54 -34.54058 -60.93436 31684 ft 386 kts 279°
2026-05-06 22:54 -34.53127 -60.99847 31687 ft 387 kts 283°
2026-05-06 22:55 -34.52137 -61.06200 31691 ft 382 kts 283°
2026-05-06 22:55 -34.51147 -61.12572 31687 ft 385 kts 283°
2026-05-06 22:56 -34.50166 -61.18916 31690 ft 386 kts 283°
2026-05-06 22:56 -34.49168 -61.25297 31687 ft 384 kts 283°
2026-05-06 22:57 -34.48133 -61.31660 31686 ft 385 kts 283°
2026-05-06 22:57 -34.47078 -61.38019 31686 ft 384 kts 285°
2026-05-06 22:58 -34.46026 -61.44350 31686 ft 383 kts 285°
2026-05-06 22:58 -34.44981 -61.50680 31684 ft 383 kts 285°
2026-05-06 22:59 -34.43928 -61.56994 31676 ft 380 kts 284°
2026-05-06 22:59 -34.42895 -61.63198 31684 ft 377 kts 284°
2026-05-06 23:00 -34.41851 -61.69403 31680 ft 376 kts 284°
2026-05-06 23:00 -34.40807 -61.75594 31684 ft 374 kts 284°
2026-05-06 23:01 -34.39763 -61.81781 31684 ft 376 kts 284°
2026-05-06 23:01 -34.38709 -61.87991 31679 ft 376 kts 284°
2026-05-06 23:02 -34.37658 -61.94197 31698 ft 376 kts 285°
2026-05-06 23:02 -34.36619 -62.00337 31671 ft 374 kts 285°
2026-05-06 23:03 -34.35568 -62.06497 31672 ft 374 kts 285°
2026-05-06 23:03 -34.34511 -62.12661 31666 ft 374 kts 285°
2026-05-06 23:04 -34.33452 -62.18821 31669 ft 374 kts 285°
2026-05-06 23:04 -34.32389 -62.24981 31674 ft 373 kts 285°
2026-05-06 23:05 -34.31334 -62.31118 31665 ft 373 kts 285°
2026-05-06 23:05 -34.30271 -62.37253 31662 ft 373 kts 285°
2026-05-06 23:06 -34.29207 -62.43342 31667 ft 373 kts 285°
2026-05-06 23:06 -34.28139 -62.49476 31668 ft 373 kts 285°
2026-05-06 23:07 -34.27066 -62.55601 31663 ft 371 kts 285°
2026-05-06 23:07 -34.25993 -62.61706 31665 ft 371 kts 285°
2026-05-06 23:08 -34.24919 -62.67810 31666 ft 372 kts 285°
2026-05-06 23:08 -34.23849 -62.73888 31662 ft 373 kts 285°
2026-05-06 23:09 -34.22764 -62.80015 31669 ft 373 kts 285°
2026-05-06 23:09 -34.21675 -62.86135 31659 ft 372 kts 286°
2026-05-06 23:10 -34.20585 -62.92248 31665 ft 372 kts 286°
2026-05-06 23:10 -34.19491 -62.98354 31665 ft 372 kts 286°
2026-05-06 23:11 -34.18393 -63.04467 31662 ft 372 kts 286°
2026-05-06 23:11 -34.17293 -63.10576 31662 ft 372 kts 286°
2026-05-06 23:12 -34.16198 -63.16650 31663 ft 373 kts 286°
2026-05-06 23:12 -34.15095 -63.22768 31640 ft 373 kts 286°
2026-05-06 23:13 -34.13982 -63.28891 31664 ft 373 kts 286°
2026-05-06 23:13 -34.12866 -63.35005 31664 ft 373 kts 286°
2026-05-06 23:14 -34.11746 -63.41125 31669 ft 373 kts 286°
2026-05-06 23:14 -34.10620 -63.47243 31664 ft 374 kts 286°
2026-05-06 23:15 -34.09499 -63.53367 31668 ft 374 kts 286°
2026-05-06 23:15 -34.08384 -63.59447 31667 ft 374 kts 286°
2026-05-06 23:16 -34.07253 -63.65570 31671 ft 374 kts 286°
2026-05-06 23:16 -34.06119 -63.71689 31670 ft 374 kts 286°
2026-05-06 23:17 -34.04986 -63.77806 31620 ft 372 kts 286°
2026-05-06 23:17 -34.03846 -63.83899 31673 ft 373 kts 286°
2026-05-06 23:18 -34.02699 -63.89998 31669 ft 373 kts 286°
2026-05-06 23:18 -34.01557 -63.96095 31670 ft 373 kts 286°
2026-05-06 23:19 -34.00416 -64.02190 31674 ft 373 kts 286°
2026-05-06 23:19 -33.99278 -64.08228 31672 ft 370 kts 285°
2026-05-06 23:20 -33.98134 -64.14261 31676 ft 369 kts 285°
2026-05-06 23:20 -33.96991 -64.20287 31678 ft 369 kts 285°
2026-05-06 23:21 -33.95842 -64.26308 31675 ft 369 kts 285°
2026-05-06 23:21 -33.94693 -64.32324 31675 ft 369 kts 285°
2026-05-06 23:22 -33.93544 -64.38338 31689 ft 367 kts 285°
2026-05-06 23:22 -33.92405 -64.44286 31680 ft 363 kts 285°
2026-05-06 23:23 -33.91275 -64.50163 31678 ft 363 kts 285°
2026-05-06 23:23 -33.90225 -64.56110 31678 ft 363 kts 284°
2026-05-06 23:24 -33.89281 -64.62084 31685 ft 363 kts 284°
2026-05-06 23:24 -33.88333 -64.68061 31684 ft 363 kts 284°
2026-05-06 23:25 -33.87357 -64.74026 31684 ft 363 kts 284°
2026-05-06 23:25 -33.86364 -64.79986 31685 ft 363 kts 284°
2026-05-06 23:26 -33.85376 -64.85905 31690 ft 363 kts 284°
2026-05-06 23:26 -33.84386 -64.91867 31690 ft 363 kts 284°
2026-05-06 23:27 -33.83393 -64.97825 31723 ft 363 kts 284°
2026-05-06 23:27 -33.82566 -65.02757 31694 ft 361 kts 284°
2026-05-06 23:28 -33.81571 -65.08666 31693 ft 360 kts 284°
2026-05-06 23:28 -33.80412 -65.15528 31693 ft 360 kts 284°
2026-05-06 23:29 -33.79576 -65.20474 31695 ft 360 kts 284°
2026-05-06 23:29 -33.78586 -65.26334 31696 ft 360 kts 284°
2026-05-06 23:30 -33.77584 -65.32234 31702 ft 359 kts 285°
2026-05-06 23:30 -33.76586 -65.38112 31701 ft 359 kts 285°
2026-05-06 23:31 -33.75586 -65.43989 31704 ft 359 kts 285°
2026-05-06 23:31 -33.74578 -65.49860 31807 ft 359 kts 285°
2026-05-06 23:32 -33.73569 -65.55693 31788 ft 359 kts 285°
2026-05-06 23:32 -33.72556 -65.61566 31792 ft 360 kts 285°
2026-05-06 23:33 -33.71542 -65.67439 31712 ft 358 kts 285°
2026-05-06 23:33 -33.70526 -65.73294 31712 ft 358 kts 285°
2026-05-06 23:34 -33.69502 -65.79154 31717 ft 358 kts 285°
2026-05-06 23:34 -33.68487 -65.84967 31714 ft 358 kts 285°
2026-05-06 23:35 -33.67467 -65.90826 31718 ft 358 kts 285°
2026-05-06 23:35 -33.66439 -65.96672 31726 ft 358 kts 285°
2026-05-06 23:36 -33.65401 -66.02529 31731 ft 358 kts 285°
2026-05-06 23:36 -33.64370 -66.08379 31725 ft 358 kts 285°
2026-05-06 23:37 -33.63342 -66.14192 31729 ft 358 kts 285°
2026-05-06 23:37 -33.62312 -66.20037 31726 ft 358 kts 285°
2026-05-06 23:38 -33.61268 -66.25881 31756 ft 358 kts 285°
2026-05-06 23:38 -33.60226 -66.31715 31735 ft 358 kts 285°
2026-05-06 23:39 -33.59183 -66.37548 31746 ft 357 kts 285°
2026-05-06 23:39 -33.58131 -66.43373 31743 ft 357 kts 285°
2026-05-06 23:40 -33.57078 -66.49200 31743 ft 357 kts 285°
2026-05-06 23:40 -33.56031 -66.54979 31732 ft 357 kts 285°
2026-05-06 23:41 -33.54973 -66.60817 31718 ft 360 kts 285°
2026-05-06 23:41 -33.53901 -66.66695 31718 ft 361 kts 285°
2026-05-06 23:42 -33.52830 -66.72581 31723 ft 361 kts 285°
2026-05-06 23:42 -33.51759 -66.78465 31723 ft 361 kts 285°
2026-05-06 23:43 -33.50686 -66.84311 31723 ft 362 kts 285°
2026-05-06 23:43 -33.49608 -66.90180 31726 ft 360 kts 285°
2026-05-06 23:44 -33.48519 -66.96070 31725 ft 363 kts 285°
2026-05-06 23:44 -33.47427 -67.01976 31722 ft 363 kts 285°
2026-05-06 23:45 -33.46337 -67.07883 31729 ft 363 kts 285°
2026-05-06 23:45 -33.45243 -67.13795 31722 ft 363 kts 285°
2026-05-06 23:46 -33.44146 -67.19659 31724 ft 363 kts 285°
2026-05-06 23:46 -33.43033 -67.25595 31725 ft 369 kts 284°
2026-05-06 23:47 -33.41905 -67.31613 31731 ft 372 kts 284°
2026-05-06 23:47 -33.40769 -67.37653 31723 ft 372 kts 284°
2026-05-06 23:48 -33.39628 -67.43693 31724 ft 372 kts 284°
2026-05-06 23:48 -33.38489 -67.49741 31693 ft 372 kts 285°
2026-05-06 23:49 -33.37359 -67.55685 31756 ft 368 kts 285°
2026-05-06 23:49 -33.36218 -67.61682 31722 ft 370 kts 285°
2026-05-06 23:50 -33.35074 -67.67690 31720 ft 371 kts 285°
2026-05-06 23:50 -33.33343 -67.76710 31719 ft 371 kts 285°
2026-05-06 23:51 -33.32189 -67.82724 31720 ft 371 kts 285°
2026-05-06 23:51 -33.31043 -67.88736 31712 ft 371 kts 285°
2026-05-06 23:52 -33.29895 -67.94711 31717 ft 371 kts 285°
2026-05-06 23:52 -33.28729 -68.00721 31717 ft 371 kts 285°
2026-05-06 23:53 -33.27557 -68.06738 31718 ft 371 kts 285°
2026-05-06 23:53 -33.26385 -68.12747 31717 ft 371 kts 285°
2026-05-06 23:54 -33.25222 -68.18750 31713 ft 370 kts 285°
2026-05-06 23:54 -33.24047 -68.24752 31713 ft 373 kts 284°
2026-05-06 23:55 -33.22872 -68.30750 31715 ft 374 kts 284°
2026-05-06 23:55 -33.21685 -68.36789 31713 ft 374 kts 284°
2026-05-06 23:56 -33.20489 -68.42826 31707 ft 374 kts 284°
2026-05-06 23:56 -33.19294 -68.48860 31715 ft 374 kts 284°
2026-05-06 23:57 -33.18099 -68.54901 31723 ft 375 kts 284°
2026-05-06 23:57 -33.16908 -68.60924 31717 ft 376 kts 284°
2026-05-06 23:58 -33.15697 -68.66998 31715 ft 376 kts 284°
2026-05-06 23:58 -33.14476 -68.73072 31723 ft 376 kts 284°
2026-05-06 23:59 -33.13258 -68.79141 31721 ft 376 kts 284°
2026-05-06 23:59 -33.12039 -68.85187 31721 ft 374 kts 284°
2026-05-07 00:00 -33.10837 -68.91163 31743 ft 371 kts 283°
2026-05-07 00:00 -33.09635 -68.97129 31750 ft 370 kts 283°
2026-05-07 00:01 -33.08427 -69.03093 31788 ft 370 kts 283°
2026-05-07 00:01 -33.07218 -69.09051 31786 ft 370 kts 283°
2026-05-07 00:02 -33.06011 -69.15011 31850 ft 370 kts 283°
2026-05-07 00:02 -33.04785 -69.20971 31943 ft 369 kts 282°
2026-05-07 00:03 -33.03586 -69.26807 31923 ft 364 kts 282°
2026-05-07 00:03 -33.02387 -69.32646 31921 ft 361 kts 282°
2026-05-07 00:04 -33.01192 -69.38428 31642 ft 350 kts 282°
2026-05-07 00:04 -33.00616 -69.41208 31455 ft 343 kts 282°
2026-05-07 00:04 -33.00052 -69.43952 31209 ft 339 kts 282°
2026-05-07 00:05 -32.99493 -69.46669 30931 ft 337 kts 282°
2026-05-07 00:05 -32.98944 -69.49328 30684 ft 334 kts 282°
2026-05-07 00:05 -32.98389 -69.51998 30445 ft 331 kts 282°
2026-05-07 00:05 -32.97837 -69.54639 30314 ft 327 kts 282°
2026-05-07 00:06 -32.97291 -69.57252 30074 ft 323 kts 282°
2026-05-07 00:06 -32.96753 -69.59835 29784 ft 321 kts 282°
2026-05-07 00:06 -32.96218 -69.62413 29496 ft 321 kts 282°
2026-05-07 00:06 -32.95684 -69.64987 29208 ft 319 kts 282°
2026-05-07 00:07 -32.95151 -69.67547 28968 ft 318 kts 282°
2026-05-07 00:07 -32.94624 -69.70069 28662 ft 310 kts 282°
2026-05-07 00:07 -32.94109 -69.72535 28291 ft 304 kts 282°
2026-05-07 00:07 -32.93602 -69.74961 27926 ft 299 kts 282°
2026-05-07 00:08 -32.93109 -69.77320 27570 ft 295 kts 281°
2026-05-07 00:08 -32.92621 -69.79653 27264 ft 287 kts 282°
2026-05-07 00:08 -32.92140 -69.81959 26921 ft 287 kts 282°
2026-05-07 00:08 -32.91657 -69.84258 26587 ft 286 kts 282°
2026-05-07 00:09 -32.91172 -69.86555 26239 ft 286 kts 282°
2026-05-07 00:09 -32.90686 -69.88860 25921 ft 288 kts 282°
2026-05-07 00:09 -32.90196 -69.91175 25598 ft 289 kts 282°
2026-05-07 00:09 -32.89705 -69.93495 25295 ft 289 kts 282°
2026-05-07 00:10 -32.89217 -69.95812 24980 ft 289 kts 282°
2026-05-07 00:10 -32.88728 -69.98128 24585 ft 288 kts 282°
2026-05-07 00:10 -32.88294 -70.00451 24208 ft 288 kts 277°
2026-05-07 00:10 -32.88079 -70.02800 23847 ft 290 kts 275°
2026-05-07 00:11 -32.87866 -70.05186 23397 ft 289 kts 275°
2026-05-07 00:11 -32.87649 -70.07561 23024 ft 287 kts 275°
2026-05-07 00:11 -32.87432 -70.09909 22663 ft 287 kts 275°
2026-05-07 00:11 -32.87216 -70.12260 22280 ft 285 kts 275°
2026-05-07 00:12 -32.86999 -70.14607 21906 ft 285 kts 275°
2026-05-07 00:12 -32.86783 -70.16941 21517 ft 283 kts 275°
2026-05-07 00:12 -32.86571 -70.19265 21135 ft 282 kts 274°
2026-05-07 00:12 -32.86357 -70.21594 20744 ft 284 kts 275°
2026-05-07 00:13 -32.86139 -70.23950 20387 ft 288 kts 275°
2026-05-07 00:13 -32.85918 -70.26316 20000 ft 288 kts 275°
2026-05-07 00:13 -32.85697 -70.28680 19613 ft 287 kts 276°
2026-05-07 00:13 -32.85478 -70.31008 19237 ft 288 kts 276°
2026-05-07 00:14 -32.85255 -70.33370 18859 ft 288 kts 276°
2026-05-07 00:14 -32.85034 -70.35731 18487 ft 288 kts 276°
2026-05-07 00:14 -32.84817 -70.38088 18071 ft 286 kts 275°
2026-05-07 00:14 -32.84600 -70.40432 17707 ft 285 kts 276°
2026-05-07 00:15 -32.84381 -70.42773 17328 ft 284 kts 276°
2026-05-07 00:15 -32.84160 -70.45105 16969 ft 284 kts 276°
2026-05-07 00:15 -32.83938 -70.47432 16604 ft 282 kts 276°
2026-05-07 00:15 -32.83716 -70.49751 16250 ft 282 kts 276°
2026-05-07 00:16 -32.83497 -70.52070 15890 ft 282 kts 276°
2026-05-07 00:16 -32.83280 -70.54390 15517 ft 283 kts 275°
2026-05-07 00:16 -32.83061 -70.56718 15161 ft 283 kts 275°
2026-05-07 00:16 -32.82841 -70.59040 14795 ft 283 kts 275°
2026-05-07 00:17 -32.82625 -70.61330 14428 ft 282 kts 275°
2026-05-07 00:17 -32.82406 -70.63647 14065 ft 282 kts 275°
2026-05-07 00:17 -32.82188 -70.65952 13960 ft 281 kts 275°
2026-05-07 00:17 -32.82230 -70.68273 13839 ft 281 kts 259°
2026-05-07 00:18 -32.82847 -70.70476 13658 ft 284 kts 244°
2026-05-07 00:18 -32.84007 -70.72408 13043 ft 293 kts 227°
2026-05-07 00:18 -32.85512 -70.74030 12725 ft 290 kts 225°
2026-05-07 00:18 -32.87014 -70.75664 12168 ft 293 kts 225°
2026-05-07 00:19 -32.88493 -70.77294 11880 ft 288 kts 225°
2026-05-07 00:19 -32.89959 -70.78918 11497 ft 287 kts 225°
2026-05-07 00:19 -32.91556 -70.80356 11105 ft 290 kts 212°
2026-05-07 00:19 -32.93389 -70.81264 10632 ft 289 kts 198°
2026-05-07 00:20 -32.95383 -70.81656 9763 ft 292 kts 189°
2026-05-07 00:20 -32.97391 -70.81940 8946 ft 289 kts 189°
2026-05-07 00:20 -32.99372 -70.82227 8321 ft 283 kts 189°
2026-05-07 00:20 -33.01334 -70.82345 7815 ft 283 kts 179°
2026-05-07 00:21 -33.03296 -70.82236 7338 ft 282 kts 179°
2026-05-07 00:21 -33.05265 -70.82130 6847 ft 285 kts 179°
2026-05-07 00:21 -33.07240 -70.82020 6456 ft 283 kts 179°
2026-05-07 00:21 -33.09211 -70.81908 6019 ft 282 kts 179°
2026-05-07 00:22 -33.11153 -70.81796 5723 ft 275 kts 179°
2026-05-07 00:22 -33.12978 -70.81677 5607 ft 251 kts 179°
2026-05-07 00:22 -33.14678 -70.81574 5484 ft 239 kts 179°
2026-05-07 00:22 -33.16275 -70.81488 5378 ft 228 kts 179°
2026-05-07 00:23 -33.17826 -70.81406 5292 ft 216 kts 179°
2026-05-07 00:23 -33.19289 -70.81328 5062 ft 206 kts 178°
2026-05-07 00:23 -33.20692 -70.81254 4798 ft 198 kts 178°
2026-05-07 00:23 -33.22044 -70.81182 4546 ft 191 kts 180°
2026-05-07 00:24 -33.23353 -70.81112 4288 ft 186 kts 180°
2026-05-07 00:24 -33.24624 -70.81044 4031 ft 180 kts 178°
2026-05-07 00:24 -33.25861 -70.80978 3808 ft 175 kts 179°
2026-05-07 00:24 -33.27050 -70.80914 3573 ft 168 kts 178°
2026-05-07 00:25 -33.28186 -70.80854 3376 ft 160 kts 178°
2026-05-07 00:25 -33.29289 -70.80795 3145 ft 157 kts 178°
2026-05-07 00:25 -33.30356 -70.80738 2934 ft 154 kts 179°
2026-05-07 00:25 -33.31418 -70.80681 2733 ft 152 kts 178°
2026-05-07 00:26 -33.32461 -70.80625 2514 ft 148 kts 180°
2026-05-07 00:26 -33.33479 -70.80571 2320 ft 146 kts 180°
2026-05-07 00:26 -33.34489 -70.80517 2128 ft 145 kts 180°
2026-05-07 00:26 -33.35493 -70.80464 1935 ft 144 kts 179°
2026-05-07 00:27 -33.36488 -70.80415 1749 ft 142 kts 179°
2026-05-07 00:27 -33.37471 -70.80362 1590 ft 140 kts 178°
2026-05-07 00:27 -33.38357 -70.80313 1573 ft 108 kts 176°
2026-05-07 00:27 -33.38917 -70.80282 1574 ft 56 kts 177°
2026-05-07 00:28 -33.39190 -70.80255 1573 ft 33 kts 168°
2026-05-07 00:28 -33.39378 -70.80164 1570 ft 21 kts 149°
2026-05-07 00:28 -33.39458 -70.80103 1567 ft 12 kts 146°
2026-05-07 00:28 -33.39530 -70.80046 1566 ft 12 kts 169°
2026-05-07 00:29 -33.39614 -70.80038 1566 ft 12 kts 178°
2026-05-07 00:29 -33.39703 -70.80033 1566 ft 14 kts 177°
2026-05-07 00:30 -33.40065 -70.80010 1567 ft 19 kts 177°
2026-05-07 00:30 -33.40162 -70.79990 1566 ft 7 kts 127°
2026-05-07 00:30 -33.40163 -70.79945 1566 ft 6 kts 92°
2026-05-07 00:30 -33.40162 -70.79878 1565 ft 11 kts 81°
2026-05-07 00:31 -33.40138 -70.79803 1565 ft 7 kts 59°
2026-05-07 00:31 -33.40097 -70.79797 1565 ft 6 kts 359°
2026-05-07 00:31 -33.40082 -70.79797 1565 ft 0 kts 358°